ST-2

Last updated on Thu Nov 21 2024 00:02:41 GMT+0000 (Coordinated Universal Time)

1 37606U 11022B 24325.54172714 -.00000211 00000+0 00000+0 0 9998 2 37606 0.0117 308.0527 0002193 334.3284 60.7269 1.00272057 49524
UTC large
Height (km)
Speed (km/s)
/
Latitude / Longitude
Inclination (degrees)
Orbital Period (minutes)
Azimuth
Elevation
Range (km)
Doppler Factor

Next 0 passes for location: London (51.5072 / 0.1276)

Sorry there are no passes over London.